QPF
0.02 0.03 0.03 0.04 0.07 0.07 0.09 0.11 0.11 0.10 0.09 0.09 0.06 0.04 0.03 0.02 0.02 0.01 0.01 0.02 0.05 0.10 0.13 0.13 0.10 0.06 0.05 0.06 0.06 0.06 0.05 0.04 0.04 0.05 0.04 0.03 0.02 0.01 0.01 0.01 0.01 0.02 0.02
0.01 0.02 0.03 0.04 0.05 0.06 0.05 0.06 0.07 0.08 0.08 0.07 0.06 0.06 0.05 0.04 0.03 0.02 0.02 0.01 0.03 0.06 0.10 0.12 0.11 0.07 0.05 0.06 0.05 0.05 0.05 0.04 0.04 0.03 0.04 0.03 0.02 0.01 0.01 0.01 0.01 0.01 0.01
0.01 0.02 0.02 0.03 0.04 0.04 0.05 0.05 0.05 0.06 0.07 0.07 0.06 0.07 0.08 0.06 0.04 0.04 0.03 0.02 0.02 0.04 0.07 0.11 0.11 0.09 0.07 0.07 0.05 0.04 0.05 0.04 0.04 0.03 0.03 0.04 0.04 0.03 0.02 0.02 0.02 0.01 0.01
0.01 0.01 0.02 0.03 0.03 0.05 0.06 0.07 0.07 0.07 0.08 0.09 0.10 0.09 0.08 0.08 0.06 0.05 0.04 0.03 0.03 0.03 0.05 0.08 0.10 0.10 0.08 0.07 0.07 0.06 0.05 0.03 0.03 0.04 0.04 0.03 0.04 0.04 0.03 0.03 0.02 0.02 0.01
0.01 0.01 0.01 0.02 0.02 0.03 0.05 0.08 0.11 0.10 0.09 0.10 0.11 0.13 0.12 0.08 0.07 0.07 0.06 0.05 0.04 0.03 0.03 0.06 0.10 0.10 0.09 0.08 0.09 0.08 0.08 0.04 0.03 0.04 0.03 0.03 0.03 0.02 0.03 0.03 0.02 0.02 0.01
0.01 0.01 0.02 0.03 0.03 0.04 0.04 0.05 0.08 0.09 0.08 0.08 0.11 0.12 0.10 0.08 0.07 0.07 0.08 0.08 0.07 0.05 0.04 0.04 0.06 0.07 0.09 0.09 0.09 0.09 0.09 0.07 0.03 0.03 0.04 0.03 0.03 0.02 0.03 0.03 0.03 0.03 0.02
0.02 0.02 0.01 0.01 0.03 0.04 0.05 0.04 0.04 0.06 0.06 0.06 0.08 0.10 0.08 0.06 0.06 0.06 0.06 0.07 0.06 0.08 0.07 0.05 0.05 0.05 0.06 0.09 0.07 0.08 0.08 0.07 0.05 0.03 0.04 0.03 0.03 0.02 0.02 0.02 0.03 0.03 0.03
0.01 0.01 0.01 0.01 0.01 0.02 0.03 0.03 0.03 0.04 0.05 0.07 0.07 0.09 0.08 0.06 0.05 0.04 0.05 0.05 0.04 0.06 0.06 0.07 0.07 0.05 0.04 0.06 0.04 0.07 0.07 0.09 0.09 0.06 0.05 0.04 0.04 0.03 0.02 0.01 0.02 0.02 0.03
0.01 0.01 0.01 0.01 0.01 0.01 0.02 0.01 0.01 0.02 0.03 0.06 0.07 0.09 0.07 0.06 0.05 0.04 0.04 0.05 0.05 0.04 0.05 0.07 0.06 0.05 0.05 0.05 0.05 0.05 0.05 0.06 0.09 0.09 0.08 0.07 0.06 0.03 0.02 0.02 0.01 0.02 0.02
0.00 0.01 0.01 0.01 0.01 0.01 0.02 0.02 0.01 0.01 0.01 0.04 0.07 0.07 0.06 0.06 0.06 0.05 0.04 0.05 0.06 0.06 0.06 0.06 0.06 0.07 0.07 0.04 0.05 0.03 0.05 0.05 0.08 0.10 0.12 0.12 0.10 0.06 0.04 0.03 0.02 0.02 0.03
0.01 0.01 0.01 0.01 0.02 0.03 0.02 0.01 0.01 0.01 0.01 0.03 0.06 0.08 0.08 0.06 0.05 0.05 0.04 0.04 0.05 0.05 0.06 0.07 0.08 0.08 0.09 0.09 0.08 0.06 0.05 0.04 0.06 0.09 0.12 0.13 0.13 0.10 0.06 0.05 0.04 0.03 0.04
0.01 0.01 0.01 0.01 0.01 0.02 0.01 0.01 0.01 0.01 0.01 0.03 0.05 0.05 0.07 0.07 0.05 0.05 0.04 0.05 0.06 0.05 0.05 0.06 0.07 0.07 0.08 0.07 0.08 0.08 0.07 0.05 0.05 0.06 0.09 0.13 0.14 0.13 0.08 0.05 0.04 0.04 0.03
0.01 0.01 0.01 0.00 0.01 0.01 0.01 0.01 0.02 0.02 0.02 0.01 0.03 0.04 0.05 0.06 0.05 0.05 0.04 0.04 0.06 0.07 0.06 0.05 0.06 0.06 0.06 0.06 0.06 0.09 0.08 0.07 0.06 0.06 0.05 0.06 0.10 0.14 0.14 0.10 0.07 0.05 0.05
0.00 0.00 0.01 0.01 0.01 0.01 0.01 0.01 0.03 0.03 0.02 0.01 0.02 0.02 0.03 0.03 0.03 0.05 0.06 0.05 0.04 0.06 0.07 0.06 0.05 0.05 0.05 0.05 0.07 0.10 0.09 0.10 0.08 0.09 0.08 0.06 0.06 0.07 0.10 0.12 0.13 0.10 0.09
0.02 0.02 0.02 0.02 0.01 0.01 0.01 0.02 0.03 0.03 0.03 0.03 0.03 0.02 0.01 0.02 0.02 0.03 0.04 0.05 0.04 0.03 0.05 0.06 0.05 0.04 0.04 0.05 0.06 0.07 0.06 0.09 0.10 0.08 0.07 0.06 0.06 0.07 0.07 0.07 0.10 0.13 0.14
0.03 0.03 0.04 0.05 0.04 0.02 0.02 0.02 0.03 0.02 0.03 0.04 0.03 0.03 0.02 0.02 0.03 0.03 0.04 0.04 0.04 0.04 0.04 0.05 0.04 0.04 0.03 0.04 0.06 0.05 0.05 0.08 0.09 0.09 0.09 0.08 0.06 0.06 0.06 0.06 0.05 0.06 0.07
0.02 0.01 0.01 0.02 0.02 0.02 0.02 0.02 0.02 0.03 0.04 0.03 0.04 0.03 0.02 0.02 0.04 0.05 0.05 0.04 0.03 0.03 0.04 0.04 0.04 0.04 0.04 0.04 0.05 0.06 0.06 0.07 0.07 0.09 0.10 0.09 0.08 0.07 0.05 0.06 0.06 0.06 0.06
0.00 0.01 0.01 0.01 0.01 0.02 0.02 0.03 0.03 0.03 0.03 0.02 0.01 0.01 0.02 0.03 0.05 0.06 0.05 0.04 0.03 0.03 0.05 0.05 0.04 0.04 0.03 0.03 0.04 0.05 0.07 0.08 0.09 0.11 0.11 0.11 0.10 0.08 0.07 0.05 0.05 0.05 0.06
0.00 0.00 0.01 0.01 0.02 0.02 0.03 0.03 0.03 0.03 0.02 0.02 0.01 0.02 0.03 0.04 0.04 0.05 0.04 0.03 0.02 0.03 0.04 0.04 0.04 0.03 0.04 0.03 0.04 0.04 0.04 0.06 0.07 0.09 0.11 0.11 0.12 0.10 0.09 0.07 0.05 0.05 0.05
0.00 0.00 0.00 0.01 0.01 0.01 0.02 0.03 0.02 0.02 0.01 0.01 0.01 0.02 0.02 0.02 0.03 0.03 0.03 0.04 0.03 0.03 0.03 0.03 0.03 0.02 0.03 0.03 0.03 0.02 0.02 0.02 0.04 0.05 0.07 0.09 0.11 0.12 0.11 0.10 0.07 0.06 0.05
0.00 0.00 0.00 0.00 0.00 0.00 0.01 0.01 0.01 0.02 0.01 0.01 0.03 0.02 0.03 0.03 0.04 0.04 0.04 0.03 0.04 0.04 0.04 0.02 0.02 0.02 0.02 0.02 0.03 0.02 0.02 0.03 0.04 0.05 0.06 0.07 0.08 0.09 0.10 0.11 0.10 0.08 0.07
0.00 0.00 0.00 0.00 0.00 0.00 0.00 0.00 0.01 0.01 0.01 0.01 0.02 0.02 0.01 0.02 0.03 0.04 0.03 0.03 0.03 0.03 0.02 0.02 0.02 0.02 0.02 0.02 0.03 0.04 0.03 0.03 0.03 0.04 0.06 0.07 0.08 0.08 0.08 0.08 0.09 0.09 0.09
0.00 0.00 0.00 0.00 0.00 0.00 0.00 0.00 0.00 0.00 0.00 0.00 0.01 0.01 0.01 0.01 0.02 0.03 0.04 0.05 0.04 0.02 0.01 0.02 0.02 0.02 0.02 0.02 0.03 0.03 0.03 0.03 0.03 0.04 0.06 0.06 0.07 0.07 0.07 0.08 0.10 0.09 0.09
0.00 0.00 0.00 0.00 0.00 0.00 0.00 0.00 0.00 0.00 0.00 0.01 0.01 0.01 0.01 0.01 0.01 0.02 0.02 0.02 0.02 0.01 0.02 0.03 0.03 0.02 0.02 0.02 0.03 0.03 0.04 0.04 0.04 0.05 0.07 0.07 0.07 0.07 0.07 0.07 0.09 0.08 0.09
0.00 0.00 0.00 0.00 0.00 0.00 0.00 0.00 0.00 0.00 0.00 0.00 0.01 0.01 0.01 0.01 0.01 0.02 0.01 0.01 0.01 0.01 0.02 0.03 0.04 0.04 0.03 0.02 0.03 0.03 0.03 0.04 0.04 0.04 0.04 0.05 0.06 0.07 0.07 0.07 0.08 0.09 0.08
0.00 0.00 0.00 0.00 0.00 0.00 0.00 0.00 0.00 0.00 0.00 0.00 0.00 0.00 0.01 0.02 0.02 0.01 0.00 0.00 0.01 0.01 0.02 0.03 0.05 0.08 0.05 0.03 0.03 0.04 0.05 0.05 0.04 0.04 0.03 0.04 0.06 0.08 0.08 0.07 0.06 0.07 0.07
MSLP
1012.72 1012.46 1012.18 1011.93 1011.74 1011.65 1011.67 1011.80 1011.99 1012.22 1012.44 1012.61 1012.72 1012.76 1012.75 1012.70 1012.65 1012.61 1012.59 1012.60 1012.64 1012.68 1012.74 1012.82 1012.91 1013.04 1013.20 1013.41 1013.65 1013.93 1014.22 1014.51 1014.80 1015.07 1015.33 1015.59 1015.85 1016.11 1016.39 1016.67 1016.95 1017.21 1017.46
1012.91 1012.62 1012.32 1012.05 1011.84 1011.71 1011.69 1011.76 1011.90 1012.07 1012.24 1012.38 1012.47 1012.51 1012.51 1012.49 1012.47 1012.45 1012.45 1012.46 1012.49 1012.54 1012.60 1012.68 1012.79 1012.93 1013.11 1013.34 1013.60 1013.88 1014.17 1014.46 1014.74 1015.02 1015.28 1015.55 1015.82 1016.10 1016.39 1016.69 1016.98 1017.26 1017.51
1013.10 1012.81 1012.51 1012.24 1012.02 1011.88 1011.82 1011.83 1011.89 1011.98 1012.08 1012.16 1012.22 1012.25 1012.26 1012.27 1012.27 1012.27 1012.28 1012.29 1012.32 1012.35 1012.40 1012.48 1012.60 1012.75 1012.96 1013.20 1013.48 1013.77 1014.06 1014.36 1014.63 1014.90 1015.17 1015.44 1015.73 1016.03 1016.34 1016.66 1016.97 1017.27 1017.55
1013.27 1012.99 1012.72 1012.47 1012.27 1012.12 1012.02 1011.97 1011.95 1011.95 1011.96 1011.97 1011.99 1012.00 1012.02 1012.04 1012.06 1012.07 1012.09 1012.10 1012.10 1012.12 1012.15 1012.22 1012.34 1012.51 1012.73 1012.99 1013.29 1013.60 1013.91 1014.20 1014.48 1014.75 1015.02 1015.30 1015.60 1015.92 1016.26 1016.61 1016.95 1017.27 1017.57
1013.41 1013.16 1012.93 1012.73 1012.56 1012.41 1012.29 1012.18 1012.07 1011.98 1011.90 1011.83 1011.80 1011.78 1011.80 1011.83 1011.86 1011.89 1011.90 1011.90 1011.88 1011.87 1011.87 1011.93 1012.03 1012.21 1012.45 1012.74 1013.05 1013.38 1013.71 1014.01 1014.30 1014.57 1014.85 1015.15 1015.46 1015.81 1016.17 1016.54 1016.91 1017.26 1017.58
1013.52 1013.31 1013.13 1012.98 1012.85 1012.72 1012.58 1012.41 1012.24 1012.05 1011.89 1011.75 1011.67 1011.63 1011.64 1011.68 1011.72 1011.76 1011.76 1011.73 1011.68 1011.64 1011.61 1011.64 1011.73 1011.90 1012.15 1012.46 1012.80 1013.15 1013.48 1013.80 1014.10 1014.39 1014.68 1014.98 1015.32 1015.69 1016.07 1016.47 1016.86 1017.24 1017.57
1013.62 1013.44 1013.31 1013.22 1013.13 1013.02 1012.86 1012.66 1012.42 1012.17 1011.93 1011.74 1011.62 1011.57 1011.58 1011.63 1011.68 1011.71 1011.70 1011.65 1011.56 1011.47 1011.40 1011.39 1011.47 1011.63 1011.88 1012.19 1012.54 1012.90 1013.25 1013.58 1013.89 1014.19 1014.49 1014.81 1015.16 1015.55 1015.96 1016.38 1016.79 1017.18 1017.53
1013.72 1013.57 1013.49 1013.44 1013.39 1013.29 1013.13 1012.90 1012.62 1012.31 1012.03 1011.81 1011.67 1011.61 1011.63 1011.68 1011.74 1011.77 1011.74 1011.66 1011.53 1011.39 1011.28 1011.23 1011.27 1011.41 1011.65 1011.95 1012.30 1012.66 1013.01 1013.34 1013.65 1013.95 1014.26 1014.60 1014.97 1015.37 1015.80 1016.23 1016.66 1017.05 1017.41
1013.84 1013.72 1013.66 1013.65 1013.61 1013.53 1013.36 1013.12 1012.81 1012.48 1012.19 1011.95 1011.81 1011.76 1011.78 1011.85 1011.90 1011.92 1011.87 1011.75 1011.58 1011.39 1011.23 1011.13 1011.14 1011.25 1011.46 1011.74 1012.07 1012.41 1012.74 1013.06 1013.36 1013.66 1013.97 1014.32 1014.70 1015.11 1015.55 1016.00 1016.42 1016.82 1017.18
1014.00 1013.88 1013.84 1013.84 1013.81 1013.73 1013.56 1013.31 1012.99 1012.66 1012.37 1012.14 1012.01 1011.97 1012.00 1012.07 1012.12 1012.12 1012.03 1011.87 1011.66 1011.42 1011.22 1011.08 1011.04 1011.11 1011.28 1011.52 1011.81 1012.11 1012.41 1012.70 1012.98 1013.27 1013.58 1013.93 1014.32 1014.74 1015.19 1015.63 1016.06 1016.46 1016.81
1014.17 1014.06 1014.02 1014.00 1013.97 1013.88 1013.71 1013.45 1013.15 1012.83 1012.55 1012.34 1012.22 1012.20 1012.24 1012.29 1012.33 1012.29 1012.17 1011.97 1011.71 1011.44 1011.19 1011.01 1010.93 1010.96 1011.08 1011.27 1011.50 1011.76 1012.01 1012.26 1012.51 1012.78 1013.08 1013.43 1013.83 1014.26 1014.71 1015.16 1015.58 1015.97 1016.32
1014.34 1014.22 1014.17 1014.14 1014.09 1013.98 1013.80 1013.55 1013.25 1012.95 1012.70 1012.51 1012.41 1012.39 1012.42 1012.46 1012.46 1012.38 1012.22 1011.98 1011.68 1011.37 1011.09 1010.88 1010.77 1010.76 1010.83 1010.97 1011.15 1011.34 1011.54 1011.74 1011.96 1012.21 1012.50 1012.85 1013.25 1013.69 1014.14 1014.59 1015.01 1015.40 1015.74
1014.47 1014.35 1014.27 1014.22 1014.14 1014.01 1013.82 1013.57 1013.29 1013.02 1012.79 1012.62 1012.53 1012.51 1012.52 1012.52 1012.47 1012.35 1012.14 1011.86 1011.53 1011.20 1010.90 1010.68 1010.54 1010.50 1010.54 1010.63 1010.75 1010.89 1011.03 1011.19 1011.37 1011.60 1011.88 1012.23 1012.63 1013.08 1013.53 1013.98 1014.40 1014.77 1015.11
1014.54 1014.42 1014.32 1014.23 1014.12 1013.97 1013.77 1013.52 1013.26 1013.01 1012.80 1012.66 1012.57 1012.53 1012.50 1012.45 1012.35 1012.18 1011.92 1011.60 1011.26 1010.92 1010.62 1010.39 1010.26 1010.20 1010.21 1010.26 1010.34 1010.43 1010.53 1010.65 1010.80 1011.01 1011.28 1011.63 1012.03 1012.48 1012.94 1013.39 1013.80 1014.16 1014.49
1014.55 1014.42 1014.31 1014.19 1014.05 1013.88 1013.66 1013.42 1013.18 1012.95 1012.76 1012.62 1012.52 1012.46 1012.39 1012.29 1012.13 1011.90 1011.60 1011.26 1010.90 1010.56 1010.27 1010.06 1009.94 1009.88 1009.88 1009.92 1009.96 1010.02 1010.08 1010.17 1010.29 1010.48 1010.75 1011.09 1011.49 1011.94 1012.40 1012.83 1013.24 1013.59 1013.91
1014.50 1014.37 1014.24 1014.10 1013.94 1013.75 1013.53 1013.29 1013.06 1012.85 1012.67 1012.54 1012.43 1012.33 1012.21 1012.06 1011.84 1011.56 1011.23 1010.86 1010.50 1010.18 1009.91 1009.73 1009.62 1009.58 1009.58 1009.61 1009.64 1009.67 1009.71 1009.77 1009.88 1010.06 1010.31 1010.63 1011.03 1011.46 1011.90 1012.32 1012.71 1013.06 1013.36
1014.42 1014.29 1014.16 1014.00 1013.82 1013.62 1013.40 1013.17 1012.95 1012.75 1012.58 1012.44 1012.31 1012.18 1012.02 1011.82 1011.55 1011.23 1010.86 1010.49 1010.13 1009.82 1009.58 1009.43 1009.35 1009.33 1009.34 1009.37 1009.39 1009.41 1009.44 1009.48 1009.57 1009.72 1009.95 1010.25 1010.61 1011.01 1011.42 1011.82 1012.19 1012.51 1012.81
1014.32 1014.21 1014.07 1013.91 1013.73 1013.52 1013.30 1013.07 1012.86 1012.67 1012.51 1012.36 1012.22 1012.06 1011.86 1011.61 1011.31 1010.95 1010.56 1010.18 1009.83 1009.53 1009.31 1009.18 1009.12 1009.11 1009.14 1009.17 1009.20 1009.21 1009.23 1009.26 1009.32 1009.45 1009.63 1009.89 1010.20 1010.55 1010.92 1011.27 1011.60 1011.91 1012.19
1014.23 1014.13 1014.00 1013.84 1013.66 1013.44 1013.22 1013.01 1012.80 1012.62 1012.45 1012.30 1012.15 1011.97 1011.74 1011.46 1011.13 1010.75 1010.35 1009.96 1009.60 1009.31 1009.11 1008.98 1008.93 1008.93 1008.96 1009.00 1009.03 1009.04 1009.05 1009.06 1009.10 1009.19 1009.33 1009.52 1009.76 1010.04 1010.34 1010.63 1010.92 1011.19 1011.46
1014.13 1014.05 1013.93 1013.78 1013.59 1013.38 1013.16 1012.95 1012.75 1012.57 1012.41 1012.26 1012.09 1011.90 1011.66 1011.37 1011.02 1010.63 1010.22 1009.82 1009.46 1009.17 1008.96 1008.82 1008.77 1008.76 1008.79 1008.82 1008.85 1008.86 1008.86 1008.86 1008.87 1008.92 1009.00 1009.12 1009.28 1009.46 1009.67 1009.89 1010.12 1010.36 1010.62
1014.00 1013.93 1013.82 1013.68 1013.49 1013.29 1013.07 1012.86 1012.67 1012.49 1012.33 1012.18 1012.02 1011.83 1011.59 1011.30 1010.95 1010.56 1010.15 1009.75 1009.38 1009.07 1008.84 1008.69 1008.61 1008.59 1008.60 1008.62 1008.64 1008.65 1008.65 1008.64 1008.63 1008.63 1008.65 1008.69 1008.76 1008.84 1008.95 1009.09 1009.25 1009.44 1009.68
1013.78 1013.73 1013.64 1013.49 1013.31 1013.11 1012.90 1012.69 1012.50 1012.33 1012.18 1012.04 1011.90 1011.72 1011.50 1011.23 1010.90 1010.52 1010.12 1009.71 1009.33 1009.00 1008.74 1008.56 1008.44 1008.39 1008.38 1008.39 1008.41 1008.42 1008.42 1008.40 1008.37 1008.34 1008.31 1008.28 1008.25 1008.24 1008.26 1008.30 1008.39 1008.53 1008.74
1013.47 1013.42 1013.33 1013.19 1013.01 1012.81 1012.60 1012.39 1012.21 1012.05 1011.92 1011.80 1011.68 1011.54 1011.36 1011.12 1010.82 1010.47 1010.09 1009.68 1009.30 1008.95 1008.66 1008.43 1008.28 1008.19 1008.15 1008.15 1008.16 1008.18 1008.18 1008.17 1008.14 1008.09 1008.02 1007.93 1007.83 1007.74 1007.66 1007.61 1007.62 1007.71 1007.87
1013.04 1013.00 1012.90 1012.76 1012.57 1012.37 1012.15 1011.95 1011.78 1011.63 1011.53 1011.44 1011.36 1011.27 1011.13 1010.95 1010.70 1010.39 1010.03 1009.65 1009.26 1008.89 1008.57 1008.31 1008.12 1007.99 1007.93 1007.91 1007.92 1007.95 1007.97 1007.98 1007.96 1007.90 1007.81 1007.69 1007.54 1007.38 1007.23 1007.10 1007.04 1007.05 1007.16
1012.54 1012.49 1012.38 1012.22 1012.03 1011.82 1011.60 1011.40 1011.23 1011.11 1011.03 1010.98 1010.95 1010.91 1010.84 1010.71 1010.53 1010.27 1009.95 1009.59 1009.21 1008.84 1008.49 1008.20 1007.97 1007.82 1007.73 1007.70 1007.71 1007.74 1007.78 1007.81 1007.81 1007.77 1007.69 1007.55 1007.37 1007.17 1006.96 1006.78 1006.64 1006.59 1006.63
1012.04 1011.96 1011.83 1011.66 1011.45 1011.23 1011.00 1010.80 1010.64 1010.53 1010.48 1010.47 1010.48 1010.50 1010.49 1010.43 1010.30 1010.10 1009.83 1009.51 1009.14 1008.77 1008.42 1008.10 1007.85 1007.66 1007.55 1007.50 1007.51 1007.55 1007.61 1007.66 1007.68 1007.67 1007.59 1007.46 1007.28 1007.06 1006.82 1006.59 1006.40 1006.27 1006.24
Thickness
5695 5698 5701 5704 5707 5710 5713 5716 5719 5722 5724 5726 5728 5731 5733 5735 5738 5740 5742 5744 5745 5746 5747 5748 5748 5748 5748 5748 5748 5748 5748 5748 5748 5748 5748 5748 5748 5748 5748 5748 5748 5748 5747
5688 5691 5694 5697 5701 5704 5708 5711 5713 5716 5719 5721 5724 5727 5730 5732 5735 5738 5740 5742 5744 5746 5747 5748 5748 5747 5747 5747 5747 5747 5747 5747 5747 5747 5747 5746 5746 5746 5746 5746 5746 5746 5746
5682 5685 5687 5691 5694 5698 5702 5705 5708 5711 5713 5716 5719 5723 5726 5729 5732 5735 5737 5740 5742 5744 5745 5746 5747 5747 5746 5746 5746 5746 5746 5746 5746 5746 5746 5745 5745 5745 5745 5744 5744 5744 5744
5677 5679 5681 5684 5688 5692 5695 5699 5702 5704 5708 5711 5714 5718 5721 5725 5728 5732 5734 5737 5740 5742 5743 5744 5745 5745 5745 5745 5745 5745 5745 5745 5744 5744 5744 5744 5744 5744 5743 5743 5743 5742 5742
5673 5675 5676 5679 5682 5686 5689 5693 5696 5698 5702 5705 5709 5712 5716 5720 5723 5728 5731 5734 5736 5739 5740 5742 5743 5743 5743 5743 5743 5743 5743 5743 5743 5743 5743 5743 5743 5742 5742 5742 5741 5741 5740
5669 5671 5672 5674 5677 5679 5683 5686 5690 5693 5696 5700 5704 5708 5711 5715 5719 5723 5727 5730 5733 5735 5737 5739 5740 5741 5741 5742 5742 5742 5742 5742 5742 5742 5742 5741 5741 5741 5740 5740 5740 5739 5739
5666 5667 5668 5670 5672 5674 5677 5680 5684 5686 5689 5694 5696 5698 5704 5710 5714 5718 5722 5725 5728 5731 5733 5735 5737 5738 5739 5740 5740 5740 5740 5741 5740 5740 5740 5740 5740 5739 5739 5738 5738 5738 5737
5662 5663 5664 5665 5667 5669 5671 5674 5677 5680 5683 5688 5689 5690 5692 5698 5706 5712 5716 5719 5723 5726 5729 5731 5733 5735 5736 5738 5738 5739 5739 5739 5739 5739 5739 5739 5738 5738 5737 5737 5736 5736 5736
5659 5659 5660 5661 5662 5664 5666 5668 5671 5674 5676 5681 5685 5685 5685 5687 5694 5702 5708 5713 5717 5720 5724 5727 5729 5731 5733 5735 5736 5737 5738 5738 5738 5738 5738 5738 5737 5737 5736 5735 5735 5735 5734
5656 5656 5656 5657 5658 5659 5661 5664 5667 5669 5671 5673 5677 5682 5684 5687 5686 5690 5698 5705 5710 5714 5718 5721 5725 5727 5730 5732 5733 5735 5736 5736 5736 5736 5736 5736 5736 5735 5735 5735 5734 5734 5733
5653 5653 5653 5653 5654 5655 5657 5659 5662 5664 5667 5669 5671 5674 5677 5680 5683 5684 5686 5693 5700 5707 5712 5716 5719 5723 5726 5728 5730 5732 5733 5734 5735 5735 5735 5735 5734 5734 5734 5734 5733 5733 5732
5651 5651 5651 5651 5651 5652 5654 5656 5658 5660 5662 5665 5667 5669 5671 5672 5675 5678 5679 5684 5690 5698 5705 5710 5714 5718 5721 5724 5726 5729 5730 5732 5733 5733 5733 5733 5733 5733 5733 5732 5732 5731 5731
5649 5649 5649 5649 5649 5650 5652 5653 5655 5656 5658 5660 5662 5665 5667 5669 5672 5673 5674 5677 5681 5689 5696 5702 5708 5712 5715 5719 5722 5724 5726 5728 5730 5731 5731 5731 5731 5731 5731 5731 5730 5730 5729
5648 5649 5648 5649 5649 5649 5651 5651 5652 5653 5655 5657 5659 5661 5663 5665 5667 5669 5671 5672 5673 5679 5685 5692 5700 5705 5709 5713 5716 5718 5721 5724 5726 5727 5728 5728 5728 5728 5728 5728 5728 5727 5727
5650 5649 5649 5649 5649 5649 5649 5649 5649 5650 5652 5653 5655 5657 5658 5661 5663 5664 5666 5668 5669 5670 5675 5684 5690 5697 5702 5706 5709 5712 5715 5718 5721 5723 5724 5725 5725 5725 5725 5725 5725 5724 5724
5650 5649 5648 5648 5648 5648 5648 5648 5648 5649 5649 5650 5652 5653 5654 5656 5658 5659 5661 5663 5666 5667 5670 5677 5682 5688 5693 5698 5702 5706 5709 5712 5715 5717 5719 5720 5721 5721 5721 5721 5721 5720 5720
5651 5649 5648 5648 5647 5647 5647 5646 5646 5647 5647 5648 5649 5650 5651 5652 5653 5654 5655 5657 5660 5663 5664 5670 5675 5681 5685 5689 5694 5698 5702 5705 5708 5711 5713 5714 5715 5716 5717 5717 5716 5716 5716
5652 5650 5649 5648 5647 5647 5646 5646 5645 5645 5645 5645 5645 5646 5647 5648 5648 5649 5650 5652 5654 5657 5659 5662 5667 5672 5676 5681 5685 5690 5694 5698 5701 5704 5706 5708 5710 5711 5711 5712 5712 5712 5711
5652 5651 5649 5648 5647 5646 5646 5645 5644 5644 5643 5643 5643 5643 5643 5643 5644 5644 5645 5647 5649 5652 5654 5656 5660 5664 5668 5672 5676 5681 5686 5689 5693 5697 5700 5702 5703 5704 5705 5706 5706 5706 5706
5653 5651 5650 5648 5647 5646 5645 5644 5643 5643 5642 5642 5641 5641 5641 5640 5640 5640 5641 5642 5644 5646 5648 5650 5653 5656 5659 5664 5668 5671 5676 5680 5684 5689 5692 5695 5696 5697 5699 5700 5701 5701 5700
5654 5652 5650 5649 5648 5647 5646 5645 5643 5643 5641 5640 5640 5640 5639 5640 5640 5639 5639 5639 5640 5641 5642 5644 5647 5649 5652 5655 5659 5664 5667 5671 5675 5680 5683 5686 5688 5690 5692 5693 5694 5694 5694
5655 5653 5651 5649 5648 5649 5649 5648 5645 5643 5641 5639 5638 5638 5638 5638 5638 5638 5638 5638 5638 5638 5638 5639 5641 5644 5647 5650 5653 5657 5660 5662 5666 5673 5675 5677 5680 5682 5685 5687 5688 5688 5688
5655 5653 5651 5650 5649 5649 5649 5648 5647 5643 5641 5638 5637 5636 5636 5636 5635 5635 5635 5636 5636 5636 5637 5636 5638 5641 5644 5647 5649 5652 5654 5656 5660 5664 5665 5668 5671 5674 5678 5679 5681 5681 5682
5655 5653 5652 5650 5649 5649 5650 5649 5647 5643 5640 5638 5636 5635 5633 5633 5633 5633 5632 5632 5632 5632 5634 5635 5637 5639 5641 5644 5646 5648 5650 5651 5653 5655 5658 5660 5664 5666 5670 5672 5673 5674 5675
5656 5654 5652 5651 5649 5649 5650 5648 5647 5642 5639 5638 5636 5635 5633 5632 5633 5632 5630 5629 5630 5630 5632 5634 5636 5638 5640 5642 5643 5644 5644 5645 5646 5649 5652 5654 5656 5658 5660 5664 5666 5667 5667
5656 5655 5653 5651 5650 5648 5649 5648 5646 5642 5638 5637 5636 5635 5634 5633 5632 5631 5629 5628 5628 5629 5630 5632 5633 5635 5636 5638 5640 5641 5641 5641 5641 5643 5646 5647 5649 5650 5651 5655 5658 5659 5659